Weather History for New Haven, CT

Change the Weather History Date:

Friday, January 17, 2014

  Actual Average Record
Temperature  
Mean Temperature 34 °F -  
Max Temperature 42 °F 32 °F 54 °F (1990)
Min Temperature 25 °F 20 °F 1 °F (1982)
Degree Days  
Heating Degree Days 32    
Moisture  
Dew Point 28 °F    
Average Humidity 77    
Maximum Humidity 96    
Minimum Humidity 53    
Precipitation  
Precipitation 0.00 in - - ()
Sea Level Pressure  
Sea Level Pressure 29.95 in    
Wind  
Wind Speed 2 mph (South)    
Max Wind Speed 7 mph    
Max Gust Speed -    
Visibility 8 miles    
Events      
Averages and records for this station are not official NWS values.
T = Trace of Precipitation, MM = Missing Value Source: NWS Daily Summary

Daily Weather History Graph

Daily Weather History Graph

Search for Another Location

Airport:

Trip Planner

Search our weather history database for the weather conditions in past years. The results will help you decide how hot, cold, wet, or windy it might be!

Date:

Astronomy

Jan. 17, 2014 Rise Set
Actual Time 7:14 AM EST 4:49 PM EST
Civil Twilight 6:43 AM EST 5:19 PM EST
Nautical Twilight 6:09 AM EST 5:53 PM EST
Astronomical Twilight 5:36 AM EST 6:26 PM EST
Moon 6:35 PM EST (1/17) 7:39 AM EST (1/17)
Length of Visible Light 10h 36m
Length of Day
9h 35m
Full, 98% of the Moon is Illuminated
Jan 17
Full
Jan 24
Last Quarter
Jan 30
New
Feb 6
First Quarter
Feb 14
Full

Hourly Weather History & Observations

Time (EST) Temp. Windchill Dew Point Humidity Pressure Visibility Wind Dir Wind Speed Gust Speed Precip Events Conditions
12:53 AM 35.1 °F - 28.9 °F 78% 29.94 in 10.0 mi Calm Calm - N/A   Clear
1:53 AM 28.9 °F - 25.0 °F 85% 29.93 in 7.0 mi Calm Calm - N/A   Clear
2:53 AM 28.0 °F - 24.1 °F 85% 29.94 in 6.0 mi Calm Calm - N/A   Clear
3:53 AM 33.1 °F - 28.9 °F 85% 29.94 in 8.0 mi Calm Calm - N/A   Clear
5:53 AM 25.0 °F - 23.0 °F 92% 29.96 in 4.0 mi Calm Calm - N/A   Clear
6:53 AM 25.0 °F - 21.9 °F 88% 29.97 in 5.0 mi Calm Calm - N/A   Clear
8:53 AM 33.1 °F - 32.0 °F 96% 29.99 in 4.0 mi Calm Calm - N/A   Clear
9:53 AM 37.9 °F 33.5 °F 30.9 °F 76% 30.00 in 10.0 mi SSW 5.8 mph - N/A   Clear
10:53 AM 37.9 °F 32.7 °F 27.0 °F 65% 30.01 in 10.0 mi SSW 6.9 mph - N/A   Clear
11:53 AM 39.0 °F 35.7 °F 25.0 °F 57% 29.96 in 10.0 mi Variable 4.6 mph - N/A   Clear
12:53 PM 41.0 °F 38.0 °F 25.0 °F 53% 29.95 in 10.0 mi SSW 4.6 mph - N/A   Clear
1:53 PM 42.1 °F 38.4 °F 27.0 °F 55% 29.95 in 10.0 mi South 5.8 mph - N/A   Clear
2:53 PM 42.1 °F 39.2 °F 28.0 °F 58% 29.94 in 10.0 mi SSE 4.6 mph - N/A   Clear
3:53 PM 42.1 °F 40.2 °F 30.0 °F 62% 29.94 in 10.0 mi SE 3.5 mph - N/A   Mostly Cloudy
4:53 PM 36.0 °F - 27.0 °F 70% 29.94 in 10.0 mi Calm Calm - N/A   Scattered Clouds
5:53 PM 35.1 °F - 28.0 °F 76% 29.94 in 10.0 mi Calm Calm - N/A   Mostly Cloudy
6:53 PM 37.9 °F 35.5 °F 33.1 °F 83% 29.94 in 10.0 mi South 3.5 mph - N/A   Clear
7:53 PM 37.9 °F 35.5 °F 34.0 °F 86% 29.94 in 10.0 mi South 3.5 mph - N/A   Clear
8:53 PM 37.9 °F - 34.0 °F 86% 29.94 in 10.0 mi Calm Calm - N/A   Clear
9:53 PM 34.0 °F - 30.9 °F 89% 29.94 in 8.0 mi Calm Calm - N/A   Clear
10:53 PM 33.1 °F 30.0 °F 30.0 °F 89% 29.92 in 7.0 mi North 3.5 mph - N/A   Mostly Cloudy
11:53 PM 33.1 °F - 30.0 °F 89% 29.91 in 8.0 mi Calm Calm - N/A   Scattered Clouds